STARLINK-36531, 67513

Orbit data source: Space-Track

STARLINK-36531, 67513 is a payload satellite owned by SpaceX/Seattle (US) in LEO that was launched on Sun, 18 Jan 2026 UTC via an FALCON 9 launch vehicle from the Air Force Eastern Test Range (AFETR). Payload-class satellites include a variety of spacecraft equipped with specific instruments for various scientific and technological missions. These include communications satellites like Starlink; space stations such as the ISS; scientific satellites like the Hubble; Earth observation satellites from companies like Planet Labs, Umbra, and HawkEye 360; GPS; miniature CubeSats for education and research; and military/defense satellites.

Loading next visibility...
Identifier
67513, 2026-012W
Orbit
LEO
Country
Flag of USUS
Related business
Manufacturer
SpaceX/Seattle
Mission
Operational Commercial Communications
Bus & Motor
STARLINK V2MO, Unknown motor
Mass
575 kg wet, ~530 kg dry
Launch date (UTC)
2026-01-18 (5 months ago)
Launch vehicle
FALCON 9
Launch site
Air Force Eastern Test Range (AFETR)
Object type
Payload
Rocket body
Debris
Shape & HBR
Box + 2 Pan, 17.7 m
Radar Cross Section
36.964 m², Large (>1 m²)

Expand to show TLE details & history
Last TLE update: 16 hours ago

TLE from 16 hours ago
0 STARLINK-36531
1 67513U 26012W   26171.16944864  .00012577  00000-0  46558-3 0  9995
2 67513  43.0019  95.7515 0001230 262.3504  97.7208 15.27594299 23439
Epoch: 2026-06-20T04:04Z
TLE epoch observation values (Epoch: 2026-06-20T04:04:00.362Z)
Latitude
-0.00002°
Longitude
126.36204°
Altitude
482.895 km
Speed
7.626 km/s
True Right ascension
06h 23m 00s
True Declination
0° 00' 00"
Sunlit
Object was in daylight at epoch
Visualization orbit readout
Latitude
Unknown
Longitude
Unknown
Altitude
Unknown
Speed
Unknown
Apparent Right ascension
Unknown
Apparent Declination
Unknown
Sunlit
N/A
Visualization observer readout
Local Sidereal Time
07:24:35
Azimuth
Unknown
Elevation
Unknown
Doppler factor
Unknown
Orbital elements
Apogee altitude
485.795 km
Perigee altitude
484.107 km
Semi-major axis
6,863.088 km
Eccentricity
0.00012
Inclination
43.0019°
RAAN
95.7515°
Arg. of periapsis
262.3504°
True anomaly
97.73477°
Mean anomaly
97.7208°
Eccentric anomaly
97.72778°
Mean motion
3.81737 °/min
Orbital period
94.31 mins
BSTAR
0.00046558
Loading maneuver chart data...
Computing Atmospheric mass density...
Loading historical data...
Loading historical data...
Loading historical data...
Loading historical data...
Loading historical data...
Loading historical data...
Loading historical data...

Documentation

Showing up to 5 results
|